OneWeb SL0295

operational
NORAD ID: 49084 Int'l Des: 2021-075 Owner: ONEWEBN Country: UK Constellation: oneweb
LEOCIRCULARPOLARONEWEB_TYPE

Über OneWeb SL0295

Beschreibung wird geladen...

Live-Position

3D-Globus wird geladen...

Nächste Überflüge

Höhenverlauf

Altitude vs Time

uPlot chart will show altitude changes over time

Zweizeiliger Elementsatz

1 49084U 21075K 25350.18158058 .00000032 00000-0 48965-4 0 9992
2 49084 87.9109 42.2636 0001523 108.7964 251.3333 13.17648831209496
Epoch: 16. Dez. 2025 • Age: 18 hours

Aktueller Status

Höhe 1220.8 km
Geschwindigkeit 7.24 km/s
Subsatellitenpunkt -68.76°S, 22.56°W
Startdatum 21. Aug. 2021
Alter 4.3 years
Typ internet

Technische Details

Klassifizierung Payload
Masse 148.00 kg
Trockenmasse 140.00 kg
Gesamtmasse 148.00 kg
Länge 1.30 m
Durchmesser 1.00 m
Spannweite 5.00 m
Form Trapezoid+2 pan
Hersteller ONEWUS
Bus-Typ ARROW
Phasenstatus In Orbit
Besitzer/Staat ONEWEBN/UK

Große Konstellationen

Loading constellations...